Weather History for Marion Regional, IL

Change the Weather History Date:

Tuesday, February 5, 2013

  Actual Average Record
Temperature  
Mean Temperature 40 °F -  
Max Temperature 55 °F 40 °F 69 °F (2008)
Min Temperature 26 °F 20 °F -3 °F (1979)
Degree Days  
Heating Degree Days 24    
Moisture  
Dew Point 31 °F    
Average Humidity 78    
Maximum Humidity 100    
Minimum Humidity 41    
Precipitation  
Precipitation 0.00 in - - ()
Sea Level Pressure  
Sea Level Pressure 30.01 in    
Wind  
Wind Speed 3 mph (WNW)    
Max Wind Speed 12 mph    
Max Gust Speed -    
Visibility 10 miles    
Events      
Averages and records for this station are not official NWS values.
T = Trace of Precipitation, MM = Missing Value Source: NWS Daily Summary

Daily Weather History Graph

Daily Weather History Graph

Search for Another Location

Airport:

Trip Planner

Search our weather history database for the weather conditions in past years. The results will help you decide how hot, cold, wet, or windy it might be!

Date:

Astronomy

Feb. 05, 2013 Rise Set
Actual Time 6:56 AM CST 5:24 PM CST
Civil Twilight 6:28 AM CST 5:51 PM CST
Nautical Twilight 5:57 AM CST 6:23 PM CST
Astronomical Twilight 5:26 AM CST 6:53 PM CST
Moon 2:35 AM CST (2/5) 12:44 PM CST (2/5)
Length of Visible Light 11h 23m
Length of Day
10h 28m
Waning Crescent, 26% of the Moon is Illuminated
Feb 5
Waning Crescent
Feb 10
New
Feb 17
First Quarter
Feb 25
Full
Mar 4
Last Quarter

Hourly Weather History & Observations

Time (CST) Temp. Windchill Dew Point Humidity Pressure Visibility Wind Dir Wind Speed Gust Speed Precip Events Conditions
12:15 AM 35.6 °F 32.8 °F 30.2 °F 81% 29.96 in 10.0 mi NW 3.5 mph - N/A   Clear
12:35 AM 33.8 °F 30.8 °F 30.2 °F 87% 29.96 in 10.0 mi NNW 3.5 mph - N/A   Clear
12:55 AM 33.8 °F 30.8 °F 30.2 °F 87% 29.96 in 10.0 mi NW 3.5 mph - N/A   Clear
1:15 AM 33.8 °F 30.8 °F 30.2 °F 87% 29.97 in 10.0 mi NW 3.5 mph - N/A   Clear
1:35 AM 32.0 °F 28.7 °F 30.2 °F 93% 29.97 in 10.0 mi NNW 3.5 mph - N/A   Clear
1:55 AM 32.0 °F - 30.2 °F 93% 29.97 in 10.0 mi Calm Calm - N/A   Clear
2:15 AM 32.0 °F - 30.2 °F 93% 29.97 in 10.0 mi Calm Calm - N/A   Clear
2:35 AM 32.0 °F - 30.2 °F 93% 29.97 in 10.0 mi Calm Calm - N/A   Clear
2:55 AM 30.2 °F - 28.4 °F 93% 29.96 in 7.0 mi Calm Calm - N/A   Clear
3:15 AM 30.2 °F - 28.4 °F 93% 29.97 in 5.0 mi Calm Calm - N/A   Clear
3:35 AM 30.2 °F - 28.4 °F 93% 29.97 in 7.0 mi Calm Calm - N/A   Clear
3:55 AM 28.4 °F - 28.4 °F 100% 29.96 in 5.0 mi Calm Calm - N/A   Clear
4:15 AM 28.4 °F - 28.4 °F 100% 29.96 in 3.0 mi Calm Calm - N/A   Clear
4:35 AM 28.4 °F - 28.4 °F 100% 29.97 in 4.0 mi Calm Calm - N/A   Clear
4:55 AM 28.4 °F - 28.4 °F 100% 29.97 in 3.0 mi Calm Calm - N/A   Clear
5:15 AM 28.4 °F - 28.4 °F 100% 29.97 in 2.5 mi Calm Calm - N/A   Clear
5:35 AM 28.4 °F - 28.4 °F 100% 29.98 in 4.0 mi Calm Calm - N/A   Clear
6:54 AM 26.6 °F - 26.6 °F 100% 30.01 in 2.5 mi Calm Calm - N/A   Scattered Clouds
7:38 AM 28.4 °F 21.2 °F 28.4 °F 100% 30.00 in 3.0 mi SE 6.9 mph - N/A   Mostly Cloudy
8:51 AM 32.0 °F 27.5 °F 32.0 °F 100% 30.02 in 5.0 mi SSE 4.6 mph - N/A   Mostly Cloudy
9:53 AM 35.6 °F 29.2 °F 32.0 °F 87% 30.01 in 7.0 mi South 8.1 mph - N/A   Mostly Cloudy
11:55 AM 46.4 °F 41.1 °F 33.8 °F 62% 29.97 in 20.0 mi SSW 11.5 mph - N/A   Mostly Cloudy
12:55 PM 51.8 °F - 33.8 °F 50% 29.95 in 20.0 mi SW 11.5 mph - N/A   Scattered Clouds
1:59 PM 55.4 °F - 32.0 °F 41% 29.94 in 20.0 mi West 5.8 mph - N/A   Clear
2:55 PM 55.4 °F - 33.8 °F 44% 29.93 in 20.0 mi WSW 11.5 mph - N/A   Clear
3:55 PM 55.4 °F - 33.8 °F 44% 29.95 in 20.0 mi SW 11.5 mph - N/A   Clear
5:55 PM 48.2 °F - 35.6 °F 62% 29.97 in 20.0 mi SSW 5.8 mph - N/A   Clear
6:55 PM 48.2 °F - 33.8 °F 58% 30.00 in 10.0 mi Calm Calm - N/A   Clear
7:15 PM 42.8 °F - 33.8 °F 70% 30.01 in 10.0 mi Calm Calm - N/A   Clear
7:35 PM 44.6 °F 43.1 °F 33.8 °F 66% 30.02 in 10.0 mi WSW 3.5 mph - N/A   Clear
7:55 PM 42.8 °F - 35.6 °F 76% 30.03 in 10.0 mi Calm Calm - N/A   Clear
8:15 PM 41.0 °F - 35.6 °F 81% 30.04 in 10.0 mi Calm Calm - N/A   Clear
8:35 PM 44.6 °F 43.1 °F 35.6 °F 71% 30.05 in 10.0 mi NNW 3.5 mph - N/A   Clear
8:55 PM 46.4 °F 45.2 °F 32.0 °F 57% 30.06 in 10.0 mi NNW 3.5 mph - N/A   Clear
9:15 PM 46.4 °F - 32.0 °F 57% 30.07 in 10.0 mi Calm Calm - N/A   Clear
9:35 PM 44.6 °F 41.4 °F 32.0 °F 61% 30.08 in 10.0 mi North 5.8 mph - N/A   Clear
9:55 PM 44.6 °F 42.2 °F 32.0 °F 61% 30.09 in 10.0 mi North 4.6 mph - N/A   Clear
10:15 PM 39.2 °F - 32.0 °F 75% 30.10 in 10.0 mi Calm Calm - N/A   Clear
10:35 PM 42.8 °F 40.1 °F 32.0 °F 66% 30.10 in 10.0 mi North 4.6 mph - N/A   Clear
10:55 PM 42.8 °F 41.1 °F 32.0 °F 66% 30.11 in 10.0 mi NNW 3.5 mph - N/A   Clear
11:15 PM 41.0 °F 39.0 °F 32.0 °F 70% 30.11 in 10.0 mi North 3.5 mph - N/A   Clear
11:35 PM 41.0 °F 39.0 °F 32.0 °F 70% 30.12 in 10.0 mi NNW 3.5 mph - N/A   Clear
11:55 PM 39.2 °F 37.0 °F 32.0 °F 75% 30.13 in 10.0 mi North 3.5 mph - N/A   Clear